| time (UTC) | temp C | wind direction | speed KPH | gust KPH | rain 1hr cm | rain 24hr cm | rain mn cm | humidity % | barometer mb |
| 20260506213112 | 11 | 270 | 1.6 | 9.7 | 0.08 | 1.24 | 1.24 | 90 | 1007.3 |
| 20260506210112 | 11 | 0 | 0.0 | 0.0 | 0.08 | 1.19 | 1.19 | 90 | 1007.1 |
| 20260506203112 | 12 | 270 | 0.0 | 3.2 | 0.10 | 1.22 | 1.17 | 89 | 1006.9 |
| 20260506200112 | 12 | 0 | 0.0 | 0.0 | 0.18 | 1.17 | 1.12 | 89 | 1006.5 |
| 20260506193112 | 13 | 0 | 0.0 | 0.0 | 0.28 | 1.45 | 1.07 | 88 | 1006.2 |
| 20260506190111 | 13 | 0 | 0.0 | 0.0 | 0.36 | 1.35 | 0.94 | 88 | 1005.8 |
| 20260506183111 | 13 | 0 | 0.0 | 0.0 | 0.51 | 1.35 | 0.79 | 86 | 1005.5 |
| 20260506180111 | 14 | 0 | 0.0 | 0.0 | 0.41 | 1.14 | 0.58 | 85 | 1005.1 |
| 20260506170111 | 16 | 225 | 0.0 | 8.0 | 0.15 | 0.74 | 0.18 | 76 | 1004.5 |
| 20260506163111 | 17 | 157 | 3.2 | 16.1 | 0.00 | 0.58 | 0.03 | 68 | 1004.0 |
| 20260506160110 | 18 | 180 | 1.6 | 11.3 | 0.00 | 0.58 | 0.03 | 61 | 1003.8 |
| 20260506153111 | 19 | 202 | 0.0 | 8.0 | 0.00 | 0.58 | 0.03 | 57 | 1003.9 |
| 20260506150111 | 18 | 225 | 1.6 | 11.3 | 0.00 | 0.58 | 0.03 | 57 | 1003.8 |
| 20260506143110 | 18 | 202 | 4.8 | 12.9 | 0.00 | 0.58 | 0.03 | 58 | 1003.7 |
| 20260506133110 | 19 | 225 | 4.8 | 12.9 | 0.00 | 0.64 | 0.03 | 59 | 1003.8 |
| 20260506130111 | 20 | 225 | 4.8 | 14.5 | 0.00 | 0.64 | 0.03 | 56 | 1003.8 |
| 20260506123110 | 19 | 247 | 3.2 | 11.3 | 0.00 | 1.04 | 0.03 | 58 | 1003.8 |
| 20260506120110 | 19 | 225 | 4.8 | 16.1 | 0.00 | 1.04 | 0.03 | 59 | 1003.8 |
| 20260506110110 | 19 | 180 | 1.6 | 12.9 | 0.00 | 1.04 | 0.03 | 61 | 1004.2 |
| 20260506103109 | 17 | 225 | 3.2 | 14.5 | 0.00 | 1.04 | 0.03 | 65 | 1004.3 |
| 20260506100109 | 17 | 225 | 3.2 | 11.3 | 0.00 | 1.04 | 0.03 | 67 | 1004.5 |
| 20260506090109 | 17 | 180 | 1.6 | 11.3 | 0.00 | 1.04 | 0.03 | 75 | 1004.2 |
| 20260506083109 | 17 | 202 | 3.2 | 16.1 | 0.00 | 1.04 | 0.03 | 77 | 1004.2 |
| 20260506080109 | 15 | 202 | 0.0 | 8.0 | 0.00 | 1.04 | 0.03 | 85 | 1004.1 |
| 20260506050113 | 12 | 0 | 0.0 | 0.0 | 0.03 | 1.04 | 0.03 | 94 | 1004.4 |
| 20260506040113 | 12 | 0 | 0.0 | 0.0 | 0.00 | 1.02 | 0.00 | 94 | 1004.3 |
| 20260506033113 | 12 | 0 | 0.0 | 0.0 | 0.00 | 1.02 | 0.00 | 94 | 1004.5 |
| 20260506020113 | 12 | 0 | 0.0 | 0.0 | 0.00 | 1.02 | 0.00 | 93 | 1004.7 |
| 20260506010112 | 13 | 0 | 0.0 | 0.0 | 0.00 | 1.02 | 0.00 | 93 | 1004.9 |
| 20260506003112 | 13 | 0 | 0.0 | 0.0 | 0.00 | 1.02 | 0.00 | 93 | 1005.2 |
| 20260506000112 | 13 | 0 | 0.0 | 0.0 | 0.00 | 1.02 | 0.00 | 93 | 1005.2 |
| 20260505233113 | 13 | 0 | 0.0 | 0.0 | 0.00 | 1.02 | 0.00 | 92 | 1005.4 |
| 20260505230112 | 13 | 0 | 0.0 | 0.0 | 0.00 | 1.02 | 0.00 | 92 | 1005.4 |
| 20260505223112 | 14 | 0 | 0.0 | 0.0 | 0.00 | 1.02 | 0.00 | 92 | 1005.4 |